www.pogodaiklimat.ru

Погода и климат >> Архив погоды >> Россия >> Краснодарский край >> Усть-Лабинск


ПОГОДА в Усть-Лабинске

  • Прогноз погоды в Усть-Лабинске
  • Монитор погоды в Усть-Лабинске

АРХИВ ПОГОДЫ в Усть-Лабинске

Время (UTC), дата Ветер
(напр.,м/с)
 
Видим.   Явления Облачность Т
(С)
Тd
(С)
f
(%)
Тe
(С)
Тes
(С)
Комфортность P
(гПа)
Po
(гПа)
Тmin
(С)
Tmax
(С)
R
(мм)
R24
(мм)
S
(см)
12 12.06 В 4 10 км 10/6 600 м
[Cb cap Ac trans Ci fib]
+28.1 +18.2 55 +33 +35 очень
душно
1008.8 998.0
15 12.06 СВ 1 10 км 10/3 1000 м
[Cb cap Ac trans Ci fib]
+28.1 +19.1 58 +33 +35 очень
душно
1008.0 997.3 +29.0
18 12.06 В 3 10 км 10/5 600 м
[Cb cap Ac trans Ci fib]
+24.3 +17.8 67 +28 +28 душно 1008.7 997.8
21 12.06 ЮВ 1 10 км 10/4 600 м
[Cb cap Ac und]
+22.5 +16.5 69 +27 +27 душно 1008.3 997.4
00 13.06 штиль 0 10 км 10/5 600 м
[Cb cap Ac und]
+21.2 +16.8 76 +25 +25 комфорт 1009.0 997.9
03 13.06 штиль 0 10 км 10/0
[Ac trans Ci fib]
+21.5 +17.8 79 +26 +26 душно 1009.1 998.1 +19.8
06 13.06 Ю 1 10 км 8/0
[Ac trans Ci fib]
+26.8 +18.2 59 +31 +40 душно 1010.2 999.4
09 13.06 В 4 10 км 8/0
[Ac trans Ci fib]
+30.8 +9.7 27 +30 +39 жарко 1010.2 999.5
12 13.06 Ю 2 10 км 10/6 600 м
[Cb cap Ac und]
+25.2 +14.8 52 +28 +29 жарко 1011.1 1000.2
15 13.06 СВ 1 10 км 9/4 600 м
[Cb cap Ac trans Ci fib]
+25.7 +16.4 56 +29 +30 душно 1010.9 1000.1 +31.1
18 13.06 ЮВ 2 10 км 10/5 600 м
[Cb cap Ac trans Ci fib]
+22.2 +19.6 85 +28 +28 душно 1011.9 1000.9
21 13.06 СВ 3 10 км 10/5 600 м
[Cb cap Ac und]
+21.8 +18.1 80 +27 +27 душно 1012.5 1001.5
00 14.06 СВ 3 10 км 10/3 600 м
[Cb cap Ac und]
+21.1 +17.4 79 +25 +25 комфорт 1012.3 1001.3
03 14.06 СВ 3 10 км 6/0
[Ac trans Ci fib]
+20.5 +16.9 80 +24 +25 комфорт 1013.4 1002.3 +19.8
06 14.06 СВ 6-10
{11}
10 км 5/0
[Ci fib]
+24.3 +14.4 54 +27 +31 жарко 1014.2 1003.1
09 14.06 СВ 6-10
{11}
10 км 8/0
[Ci fib]
+27.7 +14.2 44 +30 +36 жарко 1014.8 1003.7
12 14.06 СВ 6
{12}
10 км 8/0
[Ci fib]
+30.3 +13.4 36 +32 +36 жарко 1014.0 1002.9
15 14.06 СВ 4 10 км 3/0
[Ci fib]
+30.3 +11.8 32 +31 +32 жарко 1013.2 1002.1 +30.8
18 14.06 СВ 4 10 км ясно +25.2 +12.8 46 +27 +27 жарко 1013.1 1002.0
21 14.06 СВ 4 10 км ясно +22.6 +8.8 41 +24 +24 комфорт 1012.9 1001.8
00 15.06 СВ 3 10 км ясно +20.5 +8.8 47 +22 +22 комфорт 1012.5 1001.4
03 15.06 СВ 3 10 км 3/0
[Ci fib]
+20.4 +13.7 65 +23 +24 комфорт 1012.9 1001.8 +18.1
06 15.06 В 4 10 км ясно +25.5 +17.5 61 +30 +37 душно 1012.7 1001.9
09 15.06 СВ 5 10 км 4/0
[Ci]
+31.0 +14.5 37 +33 +42 душно 1011.7 1001.0
12 15.06 В 4 10 км 3/0
[Ac As]
+32.5 +13.1 31 +33 +41 жарко 1010.4 999.8
15 15.06 СВ 4 10 км 3/0
[Ac trans]
+31.5 +13.1 33 +33 +34 жарко 1009.5 998.8 +32.8
18 15.06 С 2 10 км ясно +26.2 +13.7 46 +28 +28 жарко 1009.6 998.8
21 15.06 СВ 2 10 км ясно +22.3 +11.0 49 +24 +24 комфорт 1009.9 998.9
00 16.06 В 2 10 км ясно +19.6 +10.0 54 +21 +21 комфорт 1009.4 998.3
03 16.06 СВ 2 10 км ясно +20.2 +10.8 55 +22 +24 комфорт 1009.5 998.4 +17.8
06 16.06 В 2 10 км 1/1 600 м
[Cu hum]
+26.3 +17.3 58 +30 +40 душно 1009.5 998.7
09 16.06 В 4 10 км 1/0
[Ac cuf]
+32.2 +14.1 33 +34 +46 душно 1008.9 998.3
12 16.06 В 3 10 км 3/3 1000 м
[Cu hum]
+33.6 +12.2 27 +34 +42 очень
жарко
1007.9 997.4
15 16.06 В 2 10 км 8/3 1000 м
[Cb cap Ac trans Ci fib]
+31.7 +12.4 31 +32 +34 жарко 1007.7 997.1 +34.0
18 16.06 ЮЗ 1 10 км 6/3 600 м
[Cb cap Ac trans Ci fib]
+26.2 +18.2 61 +31 +31 очень
душно
1007.6 996.8
21 16.06 ЮЗ 1 10 км 3/3 600 м
[Cb cap Ac trans]
+22.6 +17.9 75 +28 +28 душно 1007.9 997.0
00 17.06 штиль 0 10 км 4/3 600 м
[Cb cap Ac trans]
+20.0 +18.0 88 +23 +23 комфорт 1008.7 997.6
03 17.06 В 2 н/о н/о +19.3 +14.9 76 +21 +22 комфорт 1009.4 998.3 +18.9
06 17.06 СВ 3 10 км ясно +25.8 +16.3 56 +29 +38 душно 1009.9 998.8
09 17.06 С 4 10 км 1/1 600 м
[Cu hum]
+29.5 +16.2 45 +33 +44 душно 1010.5 999.4
12 17.06 С 4 10 км ясно +31.7 +13.8 34 +33 +42 жарко 1009.8 998.7
15 17.06 СВ 3 10 км 1/0
[Ac lent]
+31.2 +14.0 35 +33 +35 жарко 1009.5 998.4 +32.2
18 17.06 С 3 10 км ясно +26.0 +14.7 50 +29 +29 душно 1010.4 999.3
21 17.06 СВ 3 10 км ясно +22.9 +12.8 53 +26 +26 жарко 1011.1 1000.0
00 18.06 СВ 3 10 км ясно +20.1 +11.6 58 +22 +22 комфорт 1010.7 999.6
03 18.06 СВ 2 10 км ясно +19.6 +12.0 61 +22 +23 комфорт 1011.5 1000.4 +18.7
06 18.06 В 5 10 км ясно +26.7 +14.3 46 +29 +35 жарко 1011.6 1000.8
09 18.06 СВ 5 10 км ясно +30.9 +13.4 34 +32 +42 жарко 1011.2 1000.5
12 18.06 СВ 4
{11}
10 км 3/0
[Ac trans]
+32.2 +11.8 29 +32 +40 жарко 1010.3 999.7
15 18.06 С 3 10 км 1/0
[Ac trans]
+31.5 +8.7 24 +30 +32 жарко 1009.8 999.1 +32.5
18 18.06 С 2 10 км 3/0
[Ac trans]
+25.8 +10.5 38 +27 +27 жарко 1010.2 999.4
21 18.06 С 3 10 км 3/0
[Ac trans]
+22.6 +11.0 48 +25 +25 комфорт 1010.8 999.8
00 19.06 СВ 2 10 км ясно +19.7 +11.6 60 +22 +22 комфорт 1010.8 999.7
03 19.06 СВ 2 10 км ясно +19.6 +12.4 63 +22 +23 комфорт 1010.6 999.5 +18.3
06 19.06 СВ 3 10 км ясно +26.7 +13.0 43 +28 +37 жарко 1011.0 999.9
09 19.06 СВ 4 10 км ясно +32.9 +9.6 24 +32 +45 жарко 1010.5 999.4

 

Местоположение метеостанции Усть-Лабинск (Краснодарский край, Россия): широта 45.23 долгота 39.73 высота над уровнем моря 94 м.

В архиве по умолчанию представлена погода в Усть-Лабинске за последнюю неделю. Архивные данные за месяц целиком и за предыдущие месяцы, начиная с января 2011 года, Вы можете получить, выбрав интересующий диапазон дат из раскрывающегося списка и нажав кнопку "Ввод!".


*Определитесь, кто Вы:
робот инопланетянин человек

Внимание! Время в таблицах - всемирное. Для получения местного времени необходимо прибавить поправку, которая равна 3 ч.

Смотрите также архив погоды в соседних городах и на ближайших метеорологических станциях:

Погода в Кореновске (Краснодарский край, Россия) (33 км)
Погода в Белореченске (Краснодарский край, Россия) (55 км)
Погода в Краснодаре (Краснодарский край, Россия) (58 км)
Погода в Дондуковской (Адыгея, Россия) (64 км)
Погода в Кропоткине (Краснодарский край, Россия) (69 км)
Погода в Майкопе (Адыгея, Россия) (73 км)
Погода в Тихорецке (Краснодарский край, Россия) (74 км)
Погода в Тимашевске (Краснодарский край, Россия) (77 км)
Погода в Горячем Ключе (Краснодарский край, Россия) (83 км)
Погода в Шунтуке (Адыгея, Россия) (90 км)

Пояснения к столбцам:

Ветер - указаны скорость ветра в м/с - средняя за 10 мин, порывы в срок и между сроками (в фигурных скобках) и направление, откуда дует ветер: С - северный, СВ - северо-восточный, В - восточный, ЮВ - юго-восточный, Ю - южный, ЮЗ - юго-западный, З - западный, СЗ - северо-западный.
Видимость - горизонтальная дальность видимости в метрах или километрах. При видимости от 1 до 10 км при отсутствии осадков обычно наблюдается дымка, при ухудшении видимости до 1 км и менее - туман. В сухую погоду видимость может ухудшаться дымом, пылью или мглою.
Явления - указаны атмосферные явления, наблюдавшиеся в срок или в последний час перед сроком; фигурными скобками обозначены явления, наблюдавшиеся между сроками (за 1-3 часа до срока); квадратными скобками обозначены град или гололедные отложения с указанием их диаметра в мм.
Облачность - указаны через наклонную черту общая и нижняя облачность в баллах и высота нижней границы облаков в метрах; квадратными скобками обозначены формы облаков: Ci - перистые, Cs - перисто-слоистые, Cc - перисто-кучевые, Ac - высококучевые, As - высокослоистые, Sc - слоисто-кучевые, Ns - слоисто-дождевые, Cu - кучевые, Cb - кучево-дождевые. Подробнее классификацию облаков см. в Атласе облаков (PDF).
T - Температура воздуха - температура, измеренная на высоте 2 м над землей.
Td - Температура точки росы - температура, при понижении до которой содержащийся в воздухе водяной пар достигнет насыщения.
f - Относительная влажность воздуха - влажноcть воздуха, измеренная на высоте 2 м над землей.
Te - Эффективная температура - температура, которую ощущает одетый по сезону человек в тени. Характеристика душности погоды. При расчете учитывается влияние влажности воздуха и скорости ветра на теплоощущения человека.
Tes - Эффективная температура на солнце - температура, которую ощущает человек, с поправкой на солнечный нагрев. Характеристика знойности погоды. Зависит от высоты солнца над горизонтом, облачности и скорости ветра. Ночью, в пасмурную погоду, а также при ветре 12 м/с и более поправка равна нулю.
P - Атмосферное давление - приведенное к уровню моря атмосферное давление.
Po - Атмосферное давление - измеренное на уровне метеостанции атмосферное давление.
Tmin - Минимальная температура - минимум температуры воздуха на высоте 2 м над землей.
Tmax - Максимальная температура - максимум температуры воздуха на высоте 2 м над землей.
R - Количество осадков - Количество выпавших осадков за период времени, мм. При наведении курсора мыши на число - период времени, за который выпало указанное количество осадков.
R24 - Количество осадков - Количество выпавших осадков за 24 часа, мм.
S - Снежный покров - Высота снежного покрова, см. При наведении курсора мыши на число - состояние снежного покрова и степень покрытия местности в баллах.